ONEWEB-0056 (45159 NORAD) Tracking and Keplerian Element Data

This shows tracking and keplerian element data for the satellite.

Feedback or suggestion? Click here.




ElementValue
Catalog45159
NameONEWEB-0056
Epoch Orbit925
Epoch Day93.82516954
Epoch Year2020
RAAN145.4402
Inclination87.4603
Eccentricity0.0021309
Argument of Perigee91.0859
Mean Anonmoly269.2805
Mean Motion14.81188016
Decay Rate-0.00370216
L11 45159U 20008AE 20093.82516954 -.00370216 00000-0 -50040-1 0 9999
L22 45159 87.4603 145.4402 0021309 91.0859 269.2805 14.81188016 9257

Live tracking and technical data element details for ONEWEB-0056 (NORAD 45159). ONEWEB-0056 can be tracked NOW for your location showing map with azimuth and elevation plus other details from your city location.

Track the satellite on the map from your city or location and see movement details for azimuth, elevation, latitude, longitude, range, height, and movement on the map or in text.







IsCatalogInMostPopularTable: catalog: 45159, numindb: 10
Update: records affected: 1



GetName: 45159 ONEWEB-0056

Hit Count: updated at: Mon, 06 Apr 2020 10:58:36 GMT